Location: Graswijk
(52.9667°N, 6.5500°E)
Time: 10:18:58
(UTC+00:00)

BlueWalker 3 - Pass Details

Date: 15 May 2026
Orbit: 447 x 457 km, 53.2° (Epoch: 5 June)

Event Time Altitude Azimuth Distance (km) Brightness Sun altitude
Exits shadow 23:05:21 11° 99° (E) 1,497 4.2 -17.8°
Drops below altitude 10° 23:05:37 10° 95° (E) 1,574 4.3 -17.8°
Sets 23:08:12 0° 77° (ENE) 2,450 5.5 -17.8°
